RH
35 33 34 35 35 34 32 32 32 32 30 34 33 38 74 96 100 100 100 100 100 94 63 57 58 64 45 55 46 45 74 82 100 100 100 100 100 100 94 76 63 61 55 62
35 33 35 34 35 34 33 32 33 33 31 30 34 30 49 86 100 100 100 97 95 95 79 74 63 52 44 45 43 62 100 100 100 100 100 100 100 100 100 84 68 65 58 56
34 35 33 35 35 34 34 33 33 34 31 28 30 30 41 52 100 100 91 85 80 78 73 69 60 56 42 46 60 93 81 84 100 100 100 100 100 100 100 90 72 69 63 65
30 33 33 32 34 35 34 35 34 34 33 29 28 29 33 69 100 97 91 86 79 70 60 53 56 60 47 69 77 83 71 64 56 100 100 100 100 100 100 100 79 73 72 66
31 32 32 33 34 33 34 34 34 34 33 32 29 28 48 68 100 100 95 79 64 54 54 54 49 54 52 63 74 64 61 60 61 62 70 100 100 100 100 100 85 76 72 69
30 31 31 32 32 32 32 33 33 33 34 34 31 31 38 91 100 97 88 82 72 62 58 61 58 57 49 56 51 55 68 58 52 59 69 95 100 100 100 100 91 74 64 62
34 30 30 30 30 30 30 30 30 30 31 34 33 35 47 100 100 100 100 81 81 88 75 72 78 68 54 61 68 73 72 61 53 54 59 99 100 100 100 100 89 81 68 64
69 39 37 38 33 36 43 39 38 32 32 35 39 39 60 100 100 100 100 100 100 100 100 90 98 91 73 70 75 87 73 59 47 51 60 82 100 100 100 100 90 100 100 90
100 96 73 56 56 54 58 42 55 48 42 42 43 55 73 100 100 100 100 100 100 98 100 100 90 80 74 74 95 95 72 56 52 58 65 72 82 100 100 100 86 78 72 98
84 100 100 100 100 99 88 92 72 73 73 68 62 68 84 100 100 100 100 98 87 89 91 93 88 66 62 90 100 100 77 60 52 65 65 70 98 100 100 93 73 76 100 100
100 98 100 100 100 100 100 100 100 100 100 99 78 83 100 100 100 100 96 100 100 100 95 99 91 72 87 100 100 96 79 66 65 74 65 80 99 100 94 77 72 70 84 83
100 100 100 100 100 100 100 100 100 100 90 98 88 67 98 100 92 100 100 100 94 94 92 100 99 84 92 100 100 97 77 69 71 77 70 77 100 100 88 73 70 57 78 100
100 100 100 100 100 98 92 100 100 100 100 83 95 70 100 80 100 100 100 86 77 73 70 63 74 82 66 55 69 84 79 72 79 80 74 96 100 97 77 69 58 52 69 91
100 100 100 98 98 100 100 100 100 100 100 99 96 91 100 100 100 90 91 94 79 69 57 52 46 49 57 65 89 89 80 85 88 92 94 100 100 95 78 68 55 55 57 78
100 100 100 98 100 100 96 100 100 98 94 86 82 81 83 93 90 80 92 82 69 68 69 69 75 80 97 84 89 88 92 100 99 100 100 100 100 94 78 72 64 54 61 81
100 100 100 100 100 96 92 96 100 100 100 100 90 86 100 100 91 100 100 90 70 66 71 74 92 93 89 92 91 100 100 100 100 100 100 100 100 100 93 100 79 71 88 61
100 100 100 100 100 100 100 88 94 98 97 91 87 93 100 100 100 100 91 85 89 100 100 100 100 100 100 100 100 100 100 98 100 100 100 100 100 100 82 81 96 94 95 50
100 100 100 100 100 100 100 100 100 95 89 93 100 100 100 96 98 99 100 100 100 100 100 100 98 94 100 100 100 99 99 100 100 100 100 100 100 100 100 98 100 86 62 57
85 100 100 100 100 100 100 100 100 100 100 100 100 100 100 100 100 95 100 100 100 100 96 98 100 100 100 90 93 100 100 100 100 100 100 100 100 100 83 67 87 68 64 73
60 75 99 100 100 100 100 100 100 100 88 100 100 100 100 100 84 100 99 95 100 100 100 98 99 100 100 100 100 100 100 100 100 100 100 100 87 90 53 69 65 52 67 78
32 44 55 72 93 100 100 100 100 100 100 100 100 100 100 97 97 93 94 98 100 100 100 100 100 100 100 100 99 100 100 100 100 100 100 98 77 57 63 53 56 87 75 85
23 24 28 37 51 67 100 100 100 100 100 100 100 100 100 100 100 100 98 96 98 100 98 100 100 100 98 93 95 100 100 100 100 97 100 78 64 50 52 84 78 84 98 100
20 21 23 25 31 43 61 75 87 100 100 100 100 100 100 100 100 100 100 100 100 100 100 97 86 94 91 85 100 100 100 100 100 100 92 69 55 58 100 100 100 99 100 100
18 19 20 20 21 27 39 50 66 79 87 93 96 98 97 93 89 82 75 72 76 73 66 76 82 68 91 100 100 99 100 100 100 100 81 79 75 86 100 100 100 92 100 100
19 19 19 19 20 20 22 26 33 43 54 56 52 50 49 46 46 48 48 51 51 58 61 47 75 100 100 96 94 100 90 78 81 79 72 89 82 100 100 99 99 81 100 100
18 18 19 20 19 18 18 18 18 19 20 20 20 18 18 20 22 24 25 25 23 26 51 86 86 78 86 96 100 92 79 86 70 76 88 84 100 91 92 95 100 98 100 100
Wind_Speed
81 76 71 74 74 71 64 60 60 60 54 45 43 43 43 39 41 44 45 41 38 39 42 44 44 44 43 39 41 44 43 40 40 51 56 57 57 51 48 50 36 31 29 20
85 77 80 79 77 72 69 65 64 66 58 47 45 46 46 45 46 47 53 51 47 45 46 40 40 37 39 41 41 46 39 41 42 50 56 59 60 58 57 53 39 35 28 25
90 88 87 84 81 76 73 67 69 69 63 52 51 49 47 52 48 49 53 53 52 49 49 45 43 42 41 40 42 40 44 43 43 49 55 60 61 63 59 56 40 35 31 30
94 93 89 85 81 79 74 75 76 72 69 59 55 52 53 52 49 55 58 56 53 49 50 48 43 38 42 41 43 44 50 51 50 46 51 59 63 64 63 58 42 37 36 34
91 94 92 92 86 87 84 82 79 74 72 67 63 59 56 50 48 53 59 59 58 53 51 52 52 44 42 44 46 52 54 53 53 52 52 55 63 61 60 59 47 39 39 36
102 99 97 93 92 88 86 84 81 80 79 69 73 66 55 50 46 50 55 62 61 61 59 58 53 50 47 49 53 56 55 57 59 58 57 55 63 65 62 56 50 42 44 44
100 96 97 95 93 90 87 86 86 85 85 72 80 69 50 49 49 50 53 59 62 64 64 56 51 52 53 55 56 56 57 59 64 65 62 56 60 64 64 54 51 52 50 47
104 100 93 93 93 92 91 91 91 92 90 82 73 53 59 57 50 54 54 55 59 61 63 58 56 55 55 60 60 61 61 66 70 71 63 56 60 67 64 61 51 53 55 56
99 97 99 98 98 96 96 94 97 97 94 86 73 68 67 57 54 52 56 58 61 64 62 61 57 57 64 67 62 63 66 70 71 70 66 61 64 65 64 67 62 54 54 57
110 103 98 97 99 99 100 101 100 98 94 91 77 77 71 63 59 57 61 65 67 67 66 66 64 66 67 66 63 67 71 71 74 74 72 69 63 64 65 67 62 56 58 60
108 108 106 105 96 94 96 94 93 95 90 88 80 79 70 61 60 67 69 72 72 68 67 70 71 70 66 66 68 73 74 78 80 77 78 68 64 66 69 68 60 57 55 58
104 109 111 103 100 96 96 93 94 96 92 97 92 76 72 70 71 73 77 80 81 77 71 71 71 72 73 72 77 78 81 82 85 83 80 73 66 68 72 69 66 63 60 64
116 115 111 114 112 107 101 91 98 96 105 101 98 83 78 81 78 77 85 88 88 84 81 77 77 81 84 85 86 85 85 88 90 84 82 72 68 72 75 72 73 69 69 67
124 122 122 116 102 101 104 97 98 99 106 90 98 84 83 78 77 82 85 92 92 91 90 87 87 87 87 87 84 85 88 92 89 84 81 71 72 79 74 76 76 72 73 74
133 128 121 115 111 115 107 105 104 111 103 104 94 99 86 85 84 87 87 92 91 88 86 85 84 82 80 85 87 90 91 88 88 85 82 79 79 82 81 83 78 75 77 80
136 131 125 120 118 119 117 114 114 108 102 106 98 99 85 87 92 86 88 90 92 90 87 86 85 86 89 90 90 90 91 91 91 88 85 80 84 88 88 82 86 85 84 86
137 133 131 125 123 126 132 118 112 115 111 107 107 92 95 96 95 93 96 95 94 93 92 92 95 95 93 94 94 93 93 95 93 89 84 83 87 89 92 88 91 93 92 99
134 135 136 133 134 137 125 117 118 118 115 112 111 103 103 104 104 101 98 98 99 98 98 97 99 98 96 96 97 98 99 96 90 87 86 88 89 95 96 96 96 98 99 108
132 135 140 138 137 135 131 113 115 120 120 117 116 110 108 108 114 105 102 103 105 105 107 106 103 103 104 105 105 100 99 96 95 90 88 91 94 98 98 101 99 99 106 109
132 133 133 135 138 135 120 116 125 128 129 111 116 114 117 120 118 106 113 112 112 113 113 111 108 109 104 104 101 99 98 100 91 93 93 96 101 99 109 103 101 111 114 112
131 133 135 132 133 132 114 115 123 130 113 112 116 123 125 123 120 119 116 115 113 112 111 111 110 104 103 101 102 101 99 96 94 99 102 104 104 108 106 109 111 117 120 121
128 130 132 133 135 130 115 121 120 118 120 118 118 118 118 120 119 118 118 117 114 114 110 108 109 108 108 108 103 98 100 102 105 105 104 107 107 110 114 110 116 124 125 125
123 123 125 129 130 124 124 125 122 122 121 120 118 118 116 115 116 116 114 114 116 114 114 115 113 108 111 104 98 100 102 106 106 106 110 113 115 116 116 118 121 126 129 129
119 122 125 126 121 121 123 123 124 124 123 122 122 121 121 121 121 122 121 119 119 119 118 114 113 108 101 101 102 105 108 110 107 109 115 117 118 118 121 122 130 132 128 131
124 124 123 121 119 116 116 119 122 123 124 123 123 123 123 122 122 122 121 119 117 114 113 107 101 100 103 106 110 112 112 112 116 120 123 120 123 124 128 130 140 137 134 143
125 125 124 122 122 117 117 115 115 115 116 116 115 115 116 117 118 116 114 115 115 109 104 103 102 105 107 113 114 114 117 119 124 125 125 126 129 133 137 141 151 150 150 158
Wind_Direction
225 225 228 232 233 236 239 244 250 253 254 255 263 272 272 273 275 280 277 274 282 290 290 293 301 306 312 314 316 320 327 322 316 326 318 316 320 325 328 330 329 314 313 313
227 226 232 232 235 237 239 243 248 255 254 256 260 269 273 278 276 274 278 284 289 291 294 296 301 307 310 311 312 320 324 318 316 320 315 313 316 318 320 323 323 319 316 316
227 230 231 233 235 237 240 244 249 254 255 254 258 263 270 277 279 276 275 277 280 288 292 294 302 306 307 307 308 317 328 327 316 321 311 309 311 312 315 317 318 318 320 320
228 231 234 235 238 242 243 245 248 251 257 257 259 262 269 275 276 276 275 278 281 285 290 295 299 299 305 302 306 312 324 327 327 318 314 305 306 307 308 309 313 314 315 319
232 234 234 237 240 241 242 245 248 252 255 257 259 260 267 274 271 271 277 283 286 289 289 293 295 295 294 297 301 308 312 319 324 325 321 303 300 302 304 306 308 309 311 315
232 233 235 239 241 243 245 248 250 252 254 254 259 259 265 271 263 268 277 282 288 288 288 290 288 290 291 290 294 299 305 313 319 323 321 308 298 297 300 301 307 308 312 310
235 235 238 240 243 245 246 249 251 252 253 253 256 260 265 266 260 264 265 276 281 282 286 288 286 286 290 290 296 299 303 312 316 321 320 306 297 295 294 299 303 305 308 309
233 236 239 242 244 245 245 245 248 250 252 253 255 258 262 261 262 261 266 269 268 273 277 281 281 285 288 293 297 297 301 305 312 316 319 311 296 293 292 297 298 297 298 304
235 236 238 240 243 245 246 248 249 251 252 253 256 259 256 260 259 262 264 267 268 270 274 278 281 284 288 293 291 293 299 303 311 315 316 311 303 292 290 298 300 298 301 300
233 234 235 239 240 243 247 246 250 255 256 256 255 255 259 261 259 264 265 267 269 270 272 276 280 283 287 288 285 293 299 305 307 312 314 312 298 294 296 299 299 297 294 299
237 237 239 240 242 246 249 251 252 253 255 259 255 255 258 259 263 265 267 267 267 272 276 277 278 283 288 284 283 291 299 302 308 308 314 309 297 295 298 297 296 293 291 296
238 239 239 241 240 244 248 251 253 256 257 258 258 255 262 259 263 265 266 267 269 270 276 274 280 284 287 284 284 290 295 301 304 307 309 309 295 294 298 296 295 296 291 289
235 238 238 238 239 242 246 251 255 257 257 256 260 259 261 261 262 263 264 267 268 270 274 276 276 280 284 287 288 287 293 299 301 305 306 304 294 295 297 296 294 298 298 292
234 236 237 239 241 240 241 244 250 252 254 256 255 256 260 261 262 265 269 270 272 273 274 277 279 285 284 284 284 288 294 296 301 302 302 294 287 294 297 297 300 302 303 302
233 236 238 240 241 243 245 246 249 253 256 258 259 259 262 267 267 267 269 272 275 277 281 285 284 282 280 283 287 291 295 298 299 298 294 291 291 295 297 299 301 304 304 305
233 236 239 241 242 245 246 245 246 251 256 258 261 262 265 264 265 268 267 271 277 279 281 283 282 281 282 286 290 292 294 297 298 296 294 291 288 293 297 296 298 301 303 303
234 237 240 241 243 245 245 246 250 252 255 258 260 261 260 263 263 263 270 275 276 278 279 279 282 285 286 287 289 291 293 295 297 296 292 291 288 291 297 298 296 297 299 305
232 235 238 239 241 243 246 247 249 253 255 259 261 260 260 265 267 268 271 273 275 276 280 282 284 286 286 287 289 291 293 294 292 290 289 290 289 291 294 297 295 296 298 301
233 236 238 240 243 245 245 247 251 253 253 256 260 263 264 265 265 269 271 271 274 276 280 283 283 284 284 286 289 290 291 291 290 286 285 285 287 291 295 296 294 298 298 302
235 236 239 240 242 245 247 248 250 253 254 257 258 260 261 262 265 268 267 271 274 276 278 281 282 283 285 287 288 290 289 288 284 285 284 284 291 290 296 296 295 299 301 303
234 238 240 242 243 244 245 249 251 253 259 257 258 260 262 264 266 267 270 271 273 275 276 278 280 283 285 285 286 288 286 284 281 283 287 289 292 296 297 297 294 298 304 306
235 237 240 242 244 244 246 246 250 254 254 256 258 261 263 265 267 269 270 272 274 275 276 280 280 281 283 285 286 285 284 285 285 289 289 292 293 297 297 297 301 304 305 305
236 239 242 242 244 246 246 248 250 253 255 257 258 261 263 266 268 270 272 273 275 277 278 280 282 282 284 284 282 283 284 287 285 287 289 291 294 296 297 299 301 303 301 300
238 239 241 244 245 247 248 249 251 253 255 258 260 262 264 266 268 270 272 274 275 276 278 280 281 284 281 280 281 281 283 287 285 286 289 291 292 292 292 295 299 299 297 299
237 240 242 244 246 248 249 250 252 253 256 257 259 262 264 266 268 270 272 274 275 276 277 279 279 277 277 278 281 283 284 285 287 287 289 289 291 292 292 292 297 302 298 294
236 239 242 244 245 247 250 252 253 254 256 258 261 263 265 266 268 269 270 271 274 275 276 275 274 276 276 281 280 280 282 284 289 288 286 287 291 292 292 295 298 299 299 300